DHK857 LOWW-KLAS

Flight info

Callsign DHK857
Flight time N/A
Altitude 26000
Route LANUX DCT VLM DCT HDO DCT IPSUB/N0482F280 DCT VAXIT DCT ARTEX DCT LAMRO DCT DEVBI DCT RATSU/M081F280 DCT 63N020W 64N030W/M084F300 64N040W 63N050W DCT MAXAR DCT MIBNO/N0483F300 DCT TUNNI DCT GOSEP/N0486F320 DCT KALLU DCT MOT DCT KU06W DCT CZI DCT KU66Q DCT MLF DCT STEWW CHOWW3
Aircraft B77L/H-SDE1E2E3FGHIJ2J3J4J5M1RWXY/LB1D1

Departure

Time N/A
Airport Vienna International Airport (LOWW)

Arrival

Time 2026-05-03 20:45
Airport Harry Reid International Airport (KLAS)
Time Latitude Longitude Altitude Speed Heading
2026-05-03 20:15 38.19273 -113.09275 33942 ft 453 kts 203°
2026-05-03 20:15 38.13361 -113.12049 33907 ft 453 kts 203°
2026-05-03 20:16 38.07449 -113.14838 33868 ft 452 kts 204°
2026-05-03 20:16 38.01557 -113.17622 33863 ft 452 kts 204°
2026-05-03 20:17 37.95668 -113.20399 33924 ft 451 kts 204°
2026-05-03 20:17 37.89796 -113.23164 33960 ft 450 kts 204°
2026-05-03 20:18 37.83975 -113.25898 33974 ft 448 kts 204°
2026-05-03 20:18 37.78133 -113.28639 34009 ft 447 kts 204°
2026-05-03 20:19 37.72301 -113.31370 33993 ft 446 kts 205°
2026-05-03 20:19 37.66487 -113.34088 33976 ft 445 kts 204°
2026-05-03 20:20 37.60679 -113.36798 33958 ft 445 kts 205°
2026-05-03 20:20 37.54881 -113.39499 33923 ft 444 kts 205°
2026-05-03 20:21 37.49089 -113.42195 33884 ft 443 kts 205°
2026-05-03 20:21 37.43293 -113.44888 33376 ft 444 kts 205°
2026-05-03 20:21 37.40415 -113.46220 32965 ft 438 kts 205°
2026-05-03 20:22 37.37579 -113.47532 32565 ft 431 kts 205°
2026-05-03 20:22 37.34780 -113.48826 32143 ft 425 kts 205°
2026-05-03 20:22 37.32027 -113.50101 31771 ft 419 kts 205°
2026-05-03 20:22 37.29302 -113.51363 31417 ft 416 kts 205°
2026-05-03 20:23 37.26594 -113.52615 31034 ft 413 kts 205°
2026-05-03 20:23 37.23916 -113.53876 30693 ft 410 kts 206°
2026-05-03 20:23 37.21307 -113.55307 30337 ft 407 kts 208°
2026-05-03 20:23 37.18786 -113.56808 29994 ft 406 kts 209°
2026-05-03 20:24 37.16247 -113.58347 29594 ft 406 kts 209°
2026-05-03 20:24 37.13704 -113.59877 29159 ft 405 kts 209°
2026-05-03 20:24 37.11162 -113.61388 28763 ft 405 kts 208°
2026-05-03 20:24 37.08587 -113.62905 28374 ft 413 kts 208°
2026-05-03 20:25 37.05966 -113.64441 27983 ft 419 kts 208°
2026-05-03 20:25 37.03323 -113.65981 27594 ft 419 kts 208°
2026-05-03 20:25 37.00688 -113.67514 27199 ft 417 kts 207°
2026-05-03 20:25 36.98064 -113.69041 26804 ft 415 kts 207°
2026-05-03 20:26 36.95450 -113.70562 26433 ft 413 kts 207°
2026-05-03 20:26 36.92851 -113.72077 26021 ft 412 kts 207°
2026-05-03 20:26 36.90262 -113.73588 25643 ft 409 kts 207°
2026-05-03 20:26 36.87686 -113.75092 25285 ft 406 kts 207°
2026-05-03 20:27 36.85142 -113.76575 25050 ft 401 kts 207°
2026-05-03 20:27 36.82625 -113.78043 24784 ft 398 kts 207°
2026-05-03 20:27 36.80120 -113.79503 24428 ft 397 kts 206°
2026-05-03 20:27 36.77614 -113.80962 24071 ft 397 kts 206°
2026-05-03 20:28 36.75108 -113.82419 23732 ft 398 kts 206°
2026-05-03 20:28 36.72602 -113.83876 23399 ft 398 kts 206°
2026-05-03 20:28 36.70088 -113.85336 22986 ft 399 kts 206°
2026-05-03 20:28 36.67581 -113.86790 22829 ft 395 kts 206°
2026-05-03 20:29 36.65105 -113.88226 22811 ft 388 kts 206°
2026-05-03 20:29 36.62700 -113.89618 22622 ft 376 kts 206°
2026-05-03 20:29 36.60353 -113.90996 22185 ft 368 kts 209°
2026-05-03 20:29 36.58276 -113.92821 21666 ft 366 kts 224°
2026-05-03 20:30 36.56653 -113.95237 21180 ft 363 kts 231°
2026-05-03 20:30 36.55139 -113.97742 20668 ft 362 kts 231°
2026-05-03 20:30 36.53643 -114.00204 20180 ft 360 kts 231°
2026-05-03 20:30 36.52130 -114.02675 19662 ft 359 kts 231°
2026-05-03 20:31 36.50616 -114.05135 19195 ft 358 kts 230°
2026-05-03 20:31 36.49107 -114.07574 18730 ft 356 kts 230°
2026-05-03 20:31 36.47595 -114.10011 18268 ft 355 kts 230°
2026-05-03 20:31 36.46088 -114.12436 17768 ft 354 kts 230°
2026-05-03 20:32 36.44583 -114.14855 17227 ft 353 kts 230°
2026-05-03 20:32 36.43083 -114.17262 16711 ft 352 kts 229°
2026-05-03 20:32 36.41587 -114.19663 16213 ft 350 kts 229°
2026-05-03 20:32 36.40110 -114.22031 15835 ft 344 kts 229°
2026-05-03 20:33 36.38648 -114.24362 15461 ft 340 kts 229°
2026-05-03 20:33 36.37195 -114.26649 15081 ft 335 kts 228°
2026-05-03 20:33 36.35753 -114.28905 14703 ft 331 kts 228°
2026-05-03 20:33 36.34331 -114.31130 14339 ft 327 kts 228°
2026-05-03 20:34 36.32926 -114.33331 13993 ft 323 kts 227°
2026-05-03 20:34 36.31539 -114.35500 13634 ft 319 kts 227°
2026-05-03 20:34 36.30630 -114.36924 13384 ft 317 kts 227°
2026-05-03 20:34 36.29264 -114.39060 12987 ft 314 kts 227°
2026-05-03 20:35 36.27916 -114.41171 12615 ft 311 kts 227°
2026-05-03 20:35 36.26576 -114.43265 12236 ft 309 kts 227°
2026-05-03 20:35 36.25247 -114.45338 11848 ft 306 kts 227°
2026-05-03 20:35 36.23917 -114.47385 11480 ft 304 kts 227°
2026-05-03 20:36 36.22595 -114.49408 11097 ft 301 kts 227°
2026-05-03 20:36 36.21282 -114.51419 10734 ft 298 kts 227°
2026-05-03 20:36 36.19985 -114.53407 10376 ft 296 kts 227°
2026-05-03 20:36 36.18697 -114.55377 10016 ft 293 kts 227°
2026-05-03 20:37 36.17419 -114.57333 9683 ft 291 kts 227°
2026-05-03 20:37 36.16149 -114.59276 9303 ft 289 kts 227°
2026-05-03 20:37 36.14888 -114.61203 8916 ft 288 kts 227°
2026-05-03 20:37 36.13642 -114.63108 8671 ft 281 kts 227°
2026-05-03 20:38 36.12425 -114.64966 8437 ft 275 kts 227°
2026-05-03 20:38 36.11233 -114.66786 8170 ft 270 kts 227°
2026-05-03 20:38 36.10074 -114.68556 8005 ft 259 kts 227°
2026-05-03 20:38 36.08972 -114.70238 7937 ft 244 kts 227°
2026-05-03 20:39 36.07927 -114.71851 7999 ft 242 kts 231°
2026-05-03 20:39 36.07309 -114.73796 7888 ft 257 kts 259°
2026-05-03 20:39 36.07285 -114.76026 7547 ft 257 kts 266°
2026-05-03 20:39 36.07308 -114.78210 7204 ft 254 kts 265°
2026-05-03 20:40 36.07326 -114.80346 6834 ft 243 kts 265°
2026-05-03 20:40 36.07340 -114.82379 6475 ft 232 kts 265°
2026-05-03 20:40 36.07351 -114.84335 6083 ft 224 kts 264°
2026-05-03 20:40 36.07359 -114.86239 5779 ft 221 kts 264°
2026-05-03 20:41 36.07373 -114.88142 5474 ft 222 kts 264°
2026-05-03 20:41 36.07381 -114.90051 5249 ft 221 kts 264°
2026-05-03 20:41 36.07381 -114.91946 5078 ft 221 kts 264°
2026-05-03 20:41 36.07380 -114.93832 4928 ft 222 kts 264°
2026-05-03 20:42 36.07378 -114.95737 4632 ft 217 kts 264°
2026-05-03 20:42 36.07378 -114.97541 4440 ft 202 kts 264°
2026-05-03 20:42 36.07377 -114.99239 4145 ft 194 kts 264°
2026-05-03 20:42 36.07374 -115.00897 3921 ft 193 kts 264°
2026-05-03 20:43 36.07372 -115.02596 3693 ft 203 kts 263°
2026-05-03 20:43 36.07371 -115.04346 3429 ft 199 kts 263°
2026-05-03 20:43 36.07373 -115.05994 3183 ft 184 kts 261°
2026-05-03 20:43 36.07369 -115.07510 2955 ft 166 kts 264°
2026-05-03 20:44 36.07368 -115.08872 2743 ft 157 kts 269°
2026-05-03 20:44 36.07379 -115.10221 2525 ft 157 kts 270°
2026-05-03 20:44 36.07365 -115.11570 2285 ft 156 kts 272°
2026-05-03 20:44 36.07364 -115.12898 2085 ft 152 kts 275°
2026-05-03 20:45 36.07365 -115.14078 2088 ft 115 kts 269°
2026-05-03 20:45 36.07365 -115.14841 2100 ft 62 kts 270°
2026-05-03 20:45 36.07366 -115.15158 2104 ft 22 kts 274°
2026-05-03 20:45 36.07399 -115.15343 2110 ft 22 kts 288°
2026-05-03 20:46 36.07466 -115.15498 2110 ft 20 kts 300°
2026-05-03 20:46 36.07552 -115.15637 2118 ft 20 kts 316°
2026-05-03 20:46 36.07651 -115.15759 2130 ft 20 kts 315°
2026-05-03 20:46 36.07770 -115.15812 2119 ft 21 kts 25°
2026-05-03 20:47 36.07805 -115.15640 2110 ft 23 kts 91°
2026-05-03 20:47 36.07805 -115.15441 2107 ft 23 kts 90°
2026-05-03 20:47 36.07805 -115.15241 2106 ft 23 kts 89°
2026-05-03 20:47 36.07800 -115.15041 2104 ft 23 kts 94°
2026-05-03 20:48 36.07788 -115.14843 2104 ft 23 kts 95°
2026-05-03 20:48 36.07775 -115.14643 2102 ft 23 kts 94°
2026-05-03 20:48 36.07761 -115.14444 2101 ft 23 kts 95°
2026-05-03 20:48 36.07754 -115.14245 2100 ft 23 kts 90°
2026-05-03 20:49 36.07755 -115.14045 2098 ft 23 kts 90°
2026-05-03 20:49 36.07755 -115.13853 2097 ft 19 kts 90°
2026-05-03 20:49 36.07798 -115.13787 2098 ft 8 kts 27°
2026-05-03 20:49 36.07827 -115.13733 2097 ft 8 kts 77°
2026-05-03 20:50 36.07831 -115.13662 2097 ft 9 kts 88°
2026-05-03 20:50 36.07832 -115.13582 2096 ft 10 kts 98°
2026-05-03 20:50 36.07827 -115.13498 2095 ft 14 kts 91°
2026-05-03 20:50 36.07828 -115.13376 2094 ft 14 kts 90°
2026-05-03 20:51 36.07828 -115.13247 2091 ft 16 kts 90°
2026-05-03 20:51 36.07829 -115.13105 2087 ft 18 kts 90°
2026-05-03 20:51 36.07828 -115.12938 2076 ft 21 kts 90°
2026-05-03 20:51 36.07829 -115.12746 2072 ft 23 kts 90°
2026-05-03 20:52 36.07870 -115.12644 2068 ft 14 kts 16°
2026-05-03 20:52 36.07956 -115.12628 2067 ft 10 kts 34°
2026-05-03 20:52 36.07966 -115.12563 2065 ft 5 kts 92°
2026-05-03 20:52 36.07966 -115.12547 2065 ft 0 kts 92°